Weather History for New Bern, NC

Change the Weather History Date:

Tuesday, October 18, 2011

  Actual Average Record
Temperature  
Mean Temperature 72 °F 63 °F  
Max Temperature 83 °F 74 °F 85 °F (2007)
Min Temperature 60 °F 53 °F 34 °F (1982)
Degree Days  
Heating Degree Days 0 4  
Month to date heating degree days 33 41  
Since 1 July heating degree days 34 48  
Cooling Degree Days 7 2  
Month to date cooling degree days 50 62  
Year to date cooling degree days 2183 1865  
Growing Degree Days 21 (Base 50)    
Moisture  
Dew Point 65 °F    
Average Humidity 76    
Maximum Humidity 100    
Minimum Humidity 51    
Precipitation  
Precipitation 0.82 in 0.09 in 2.84 in (1975)
Month to date precipitation 1.33 2.04  
Year to date precipitation 36.12 44.73  
Snow  
Snow 0.00 in - - ()
Month to date snowfall 0.0  
Since 1 July snowfall 0.0  
Snow Depth 0.00 in    
Sea Level Pressure  
Sea Level Pressure 29.83 in    
Wind  
Wind Speed 7 mph (South)    
Max Wind Speed 17 mph    
Max Gust Speed 24 mph    
Visibility 7 miles    
Events Rain    
T = Trace of Precipitation, MM = Missing Value Source: NWS Daily Summary

Daily Weather History Graph

Daily Weather History Graph

Search for Another Location

Airport:

Trip Planner

Search our weather history database for the weather conditions in past years. The results will help you decide how hot, cold, wet, or windy it might be!

Date:

Astronomy

Oct. 18, 2011 Rise Set
Actual Time 7:16 AM EDT 6:29 PM EDT
Civil Twilight 6:50 AM EDT 6:55 PM EDT
Nautical Twilight 6:21 AM EDT 7:24 PM EDT
Astronomical Twilight 5:52 AM EDT 7:54 PM EDT
Moon 11:16 PM EDT (10/18) 12:57 PM EDT (10/18)
Length of Visible Light 12h 04m
Length of Day
11h 13m
Waning Gibbous, 65% of the Moon is Illuminated
Oct 18
Waning Gibbous
Oct 19
Last Quarter
Oct 26
New
Nov 2
First Quarter
Nov 10
Full

Hourly Weather History & Observations

Time (EDT) Temp. Heat Index Dew Point Humidity Pressure Visibility Wind Dir Wind Speed Gust Speed Precip Events Conditions
12:54 AM 64.9 °F - 62.1 °F 90% 29.90 in 10.0 mi SSW 6.9 mph - N/A   Clear
1:54 AM 64.9 °F - 63.0 °F 93% 29.90 in 10.0 mi SSW 6.9 mph - N/A   Clear
2:54 AM 63.0 °F - 61.0 °F 93% 29.89 in 10.0 mi West 4.6 mph - N/A   Clear
3:39 AM 60.8 °F - 60.8 °F 100% 29.89 in 1.8 mi Calm Calm - N/A   Clear
3:49 AM 60.8 °F - 60.8 °F 100% 29.89 in 0.8 mi Calm Calm - N/A   Clear
3:54 AM 61.0 °F - 60.1 °F 97% 29.89 in 1.2 mi Calm Calm - N/A   Clear
4:08 AM 60.8 °F - 60.8 °F 100% 29.89 in 3.0 mi Calm Calm - N/A   Clear
4:16 AM 62.6 °F - 60.8 °F 94% 29.89 in 2.0 mi Calm Calm - N/A   Clear
4:20 AM 60.8 °F - 60.8 °F 100% 29.89 in 0.8 mi SSW 3.5 mph - N/A   Clear
4:30 AM 60.8 °F - 60.8 °F 100% 29.89 in 2.0 mi SSW 3.5 mph - N/A   Clear
4:37 AM 62.6 °F - 60.8 °F 94% 29.89 in 6.0 mi South 3.5 mph - N/A   Clear
4:54 AM 61.0 °F - 60.1 °F 97% 29.90 in 7.0 mi South 4.6 mph - N/A   Clear
5:54 AM 63.0 °F - 62.1 °F 97% 29.91 in 9.0 mi SSW 6.9 mph - N/A   Clear
6:54 AM 64.0 °F - 63.0 °F 96% 29.91 in 8.0 mi SSW 5.8 mph - 0.01 in   Clear
7:54 AM 66.0 °F - 64.9 °F 96% 29.92 in 10.0 mi SW 4.6 mph - N/A   Clear
8:54 AM 69.1 °F - 66.0 °F 90% 29.94 in 10.0 mi SW 4.6 mph - N/A   Clear
9:54 AM 71.6 °F - 66.2 °F 83% 29.93 in 10.0 mi SSW 10.4 mph - N/A   Clear
10:54 AM 77.0 °F - 66.0 °F 69% 29.92 in 10.0 mi WSW 10.4 mph - N/A   Clear
11:54 AM 80.1 °F 81.1 °F 61.0 °F 52% 29.90 in 10.0 mi Variable 5.8 mph - N/A   Clear
12:54 PM 82.0 °F 83.1 °F 63.0 °F 52% 29.87 in 10.0 mi SW 8.1 mph 19.6 mph N/A   Clear
1:54 PM 81.0 °F 82.2 °F 63.0 °F 54% 29.84 in 10.0 mi SSW 8.1 mph - N/A   Partly Cloudy
2:54 PM 82.4 °F 83.9 °F 64.4 °F 54% 29.82 in 10.0 mi South 11.5 mph 19.6 mph N/A   Scattered Clouds
3:54 PM 81.0 °F 82.5 °F 64.0 °F 56% 29.81 in 10.0 mi SSW 10.4 mph 19.6 mph N/A   Scattered Clouds
4:54 PM 78.1 °F - 64.0 °F 62% 29.83 in 10.0 mi South 8.1 mph - N/A   Scattered Clouds
5:54 PM 75.9 °F - 64.9 °F 69% 29.81 in 10.0 mi SSE 3.5 mph - N/A   Clear
6:54 PM 73.9 °F - 66.0 °F 76% 29.81 in 10.0 mi SE 3.5 mph - N/A   Clear
7:54 PM 73.0 °F - 66.9 °F 81% 29.81 in 10.0 mi East 4.6 mph - N/A   Clear
8:54 PM 71.6 °F - 68.0 °F 88% 29.78 in 10.0 mi East 5.8 mph - N/A Rain Light Rain
9:54 PM 71.1 °F - 69.1 °F 93% 29.74 in 8.0 mi East 6.9 mph - 0.09 in Rain Light Rain
10:46 PM 71.6 °F - 69.8 °F 94% 29.73 in 1.8 mi ESE 15.0 mph 20.7 mph 0.23 in Rain Heavy Rain
10:54 PM 71.1 °F - 69.1 °F 93% 29.73 in 2.0 mi SE 12.7 mph 24.2 mph 0.29 in Rain Heavy Rain
10:57 PM 71.6 °F - 69.8 °F 94% 29.72 in 2.5 mi ESE 10.4 mph 24.2 mph 0.01 in Rain Heavy Rain
11:04 PM 71.6 °F - 69.8 °F 94% 29.71 in 5.0 mi SE 9.2 mph 18.4 mph 0.03 in Rain Rain
11:08 PM 71.6 °F - 69.8 °F 94% 29.71 in 7.0 mi SE 8.1 mph - 0.03 in Rain Rain
11:15 PM 71.6 °F - 69.8 °F 94% 29.70 in 5.0 mi SE 11.5 mph 17.3 mph 0.07 in Rain Heavy Rain
11:24 PM 71.6 °F - 69.8 °F 94% 29.70 in 5.0 mi East 5.8 mph - 0.09 in Rain Rain
11:44 PM 69.8 °F - 69.8 °F 100% 29.67 in 6.0 mi ESE 6.9 mph - 0.12 in Rain Light Rain
11:54 PM 70.0 °F - 69.1 °F 97% 29.67 in 8.0 mi East 5.8 mph - 0.13 in Rain Light Rain